カタログに戻る

SL-14 R/B

運用中PO
NORAD 21305·ROCKET BODY·🇷🇺 Russia

打ち上げ May 16, 1991 から Plesetsk Cosmodrome

Loading…

次のパス (今後24時間)

TLE

最新Source: Space-Track

元期: Sep 14, 2026, 14:24 UTC

1 21305U 91033G   26257.60044572  .00000010  00000-0 -79766-6 0  9990
2 21305  82.5705  11.8517 0037996 185.2124 185.6021 12.54826781618215

AllMySatでSL-14 R/Bをリアルタイム追跡

Download on the App Store